When you browse on this site, cookies collect data to enhance your experience and personalize the content and advertising you see.
Visit our Privacy Policy to learn more. By continuing to use the site, you agree to this use of cookies and data.
  • In Latvia
  • List of Countries
  • For 7 days
  • Water Temperature
  • Satellite Maps
  • Weather Map
  • Weather Widgets
  • user-avatar
    Login

    Hourly Weather Mendoza

    Today, 18 July, Thursday

    Time Temperature Precipitation Wind Pressure Humidity
    00:00 +13°C° 0 mm 4 mps 697 mmHg 52%
    01:00 +13°C° 0 mm 5 mps 698 mmHg 52%
    02:00 +12°C° 0 mm 5 mps 698 mmHg 55%
    03:00 +9°C° 0 mm 6 mps 698 mmHg 57%
    04:00 +8°C° 0 mm 7 mps 699 mmHg 60%
    05:00 +8°C° 0 mm 6 mps 699 mmHg 61%
    06:00 +8°C° 0 mm 5 mps 700 mmHg 62%
    07:00 +7°C° 0 mm 4 mps 701 mmHg 63%
    08:00 +8°C° 0 mm 4 mps 701 mmHg 56%
    09:00 +10°C° 0 mm 4 mps 702 mmHg 50%
    10:00 +10°C° 0 mm 3 mps 702 mmHg 44%
    11:00 +11°C° 0 mm 4 mps 702 mmHg 40%
    12:00 +11°C° 0 mm 4 mps 702 mmHg 37%
    13:00 +12°C° 0 mm 5 mps 702 mmHg 33%
    14:00 +12°C° 0 mm 4 mps 702 mmHg 33%
    15:00 +11°C° 0 mm 4 mps 702 mmHg 33%
    16:00 +11°C° 0 mm 3 mps 701 mmHg 32%
    17:00 +10°C° 0 mm 2 mps 701 mmHg 35%
    18:00 +9°C° 0 mm 1 mps 701 mmHg 39%
    19:00 +8°C° 0 mm 1 mps 701 mmHg 42%
    20:00 +8°C° 0 mm 1 mps 701 mmHg 42%
    21:00 +8°C° 0 mm 1 mps 701 mmHg 43%
    22:00 +8°C° 0 mm 1 mps 701 mmHg 43%
    23:00 +7°C° 0 mm 1 mps 700 mmHg 43%

    Tomorrow, 19 July, Friday

    Time Temperature Precipitation Wind Pressure Humidity
    00:00 +7°C° 0 mm 1 mps 700 mmHg 43%
    01:00 +6°C° 0 mm 0 mps 699 mmHg 43%
    02:00 +7°C° 0 mm 1 mps 698 mmHg 43%
    03:00 +7°C° 0 mm 1 mps 698 mmHg 42%
    04:00 +6°C° 0 mm 1 mps 697 mmHg 41%
    05:00 +6°C° 0 mm 1 mps 697 mmHg 41%
    06:00 +6°C° 0 mm 1 mps 697 mmHg 41%
    07:00 +6°C° 0 mm 1 mps 697 mmHg 42%
    08:00 +8°C° 0 mm 1 mps 697 mmHg 38%
    09:00 +10°C° 0 mm 2 mps 697 mmHg 34%
    10:00 +13°C° 0 mm 2 mps 697 mmHg 30%
    11:00 +13°C° 0 mm 3 mps 696 mmHg 29%
    12:00 +14°C° 0 mm 3 mps 696 mmHg 28%
    13:00 +15°C° 0 mm 4 mps 695 mmHg 28%
    14:00 +16°C° 0 mm 3 mps 695 mmHg 28%
    15:00 +16°C° 0 mm 3 mps 694 mmHg 29%
    16:00 +16°C° 0 mm 2 mps 694 mmHg 30%
    17:00 +15°C° 0 mm 2 mps 694 mmHg 32%
    18:00 +13°C° 0 mm 2 mps 694 mmHg 35%
    19:00 +12°C° 0 mm 1 mps 693 mmHg 37%
    20:00 +12°C° 0 mm 2 mps 693 mmHg 38%
    21:00 +12°C° 0 mm 2 mps 693 mmHg 38%
    22:00 +12°C° 0 mm 2 mps 693 mmHg 38%
    23:00 +10°C° 0 mm 2 mps 693 mmHg 40%

    Day after tomorrow, 20 July, Saturday

    Time Temperature Precipitation Wind Pressure Humidity
    00:00 +10°C° 0 mm 2 mps 693 mmHg 41%
    01:00 +10°C° 0 mm 2 mps 693 mmHg 42%
    02:00 +10°C° 0 mm 3 mps 692 mmHg 43%
    03:00 +9°C° 0 mm 3 mps 692 mmHg 44%
    04:00 +9°C° 0 mm 3 mps 692 mmHg 46%
    05:00 +9°C° 0 mm 3 mps 692 mmHg 48%
    06:00 +9°C° 0 mm 3 mps 693 mmHg 51%
    07:00 +8°C° 0 mm 3 mps 693 mmHg 54%
    08:00 +10°C° 0 mm 3 mps 693 mmHg 56%
    09:00 +11°C° 0 mm 3 mps 693 mmHg 58%
    10:00 +12°C° 0 mm 3 mps 693 mmHg 60%
    11:00 +14°C° 0 mm 2 mps 692 mmHg 59%
    12:00 +15°C° 0 mm 2 mps 691 mmHg 58%
    13:00 +15°C° 0 mm 2 mps 691 mmHg 57%
    14:00 +15°C° 0 mm 2 mps 690 mmHg 56%
    15:00 +16°C° 0 mm 1 mps 690 mmHg 55%
    16:00 +16°C° 0 mm 1 mps 690 mmHg 54%
    17:00 +14°C° 0 mm 1 mps 690 mmHg 58%
    18:00 +13°C° 0 mm 1 mps 690 mmHg 62%
    19:00 +12°C° 0 mm 1 mps 689 mmHg 67%
    20:00 +11°C° 0 mm 1 mps 689 mmHg 67%
    21:00 +10°C° 0 mm 2 mps 689 mmHg 67%
    22:00 +10°C° 0 mm 3 mps 689 mmHg 67%
    23:00 +10°C° 0 mm 4 mps 689 mmHg 66%

    21 July, Sunday

    Time Temperature Precipitation Wind Pressure Humidity
    00:00 +9°C° 0 mm 5 mps 689 mmHg 66%
    01:00 +8°C° 0 mm 6 mps 689 mmHg 65%
    02:00 +8°C° 0 mm 6 mps 689 mmHg 64%
    03:00 +8°C° 0 mm 6 mps 689 mmHg 63%
    04:00 +8°C° 0 mm 6 mps 689 mmHg 62%
    05:00 +8°C° 0 mm 5 mps 689 mmHg 61%
    06:00 +8°C° 0 mm 4 mps 690 mmHg 60%
    07:00 +9°C° 0 mm 2 mps 690 mmHg 59%
    08:00 +10°C° 0 mm 4 mps 691 mmHg 59%
    09:00 +10°C° 0 mm 5 mps 692 mmHg 59%
    10:00 +11°C° 0 mm 6 mps 693 mmHg 58%
    11:00 +11°C° 0 mm 6 mps 692 mmHg 55%
    12:00 +11°C° 0 mm 6 mps 692 mmHg 52%
    13:00 +11°C° 0 mm 6 mps 692 mmHg 50%
    14:00 +10°C° 0 mm 5 mps 692 mmHg 46%
    15:00 +10°C° 0 mm 5 mps 693 mmHg 42%
    16:00 +9°C° 0 mm 5 mps 693 mmHg 38%
    17:00 +8°C° 0 mm 5 mps 694 mmHg 38%
    18:00 +7°C° 0 mm 4 mps 695 mmHg 37%
    19:00 +6°C° 0 mm 4 mps 696 mmHg 37%
    20:00 +5°C° 0 mm 3 mps 697 mmHg 38%
    21:00 +5°C° 0 mm 3 mps 697 mmHg 39%
    22:00 +5°C° 0 mm 2 mps 698 mmHg 40%
    23:00 +5°C° 0 mm 2 mps 699 mmHg 49%

    22 July, Monday

    Time Temperature Precipitation Wind Pressure Humidity
    00:00 +4°C° 0 mm 2 mps 699 mmHg 57%
    01:00 +2°C° 0 mm 3 mps 700 mmHg 65%
    02:00 +3°C° 0 mm 2 mps 700 mmHg 67%
    03:00 +3°C° 0 mm 2 mps 700 mmHg 69%
    04:00 +2°C° 0 mm 2 mps 700 mmHg 71%
    05:00 +2°C° 0 mm 2 mps 700 mmHg 73%
    06:00 +1°C° 0 mm 3 mps 701 mmHg 74%
    07:00 +1°C° 0 mm 3 mps 701 mmHg 76%
    08:00 +2°C° 0 mm 3 mps 701 mmHg 67%
    09:00 +5°C° 0 mm 2 mps 701 mmHg 59%
    10:00 +6°C° 0 mm 2 mps 701 mmHg 50%
    11:00 +6°C° 0 mm 2 mps 701 mmHg 48%
    12:00 +7°C° 0 mm 2 mps 700 mmHg 45%
    13:00 +7°C° 0 mm 2 mps 700 mmHg 42%
    14:00 +7°C° 0 mm 2 mps 700 mmHg 42%
    15:00 +8°C° 0 mm 2 mps 700 mmHg 41%
    16:00 +8°C° 0 mm 2 mps 700 mmHg 41%
    17:00 +7°C° 0 mm 2 mps 701 mmHg 43%
    18:00 +6°C° 0 mm 2 mps 701 mmHg 45%
    19:00 +5°C° 0 mm 2 mps 702 mmHg 47%
    20:00 +5°C° 0 mm 2 mps 702 mmHg 49%
    21:00 +6°C° 0 mm 1 mps 702 mmHg 50%
    22:00 +5°C° 0 mm 1 mps 702 mmHg 52%
    23:00 +5°C° 0 mm 1 mps 702 mmHg 52%

    23 July, Tuesday

    Time Temperature Precipitation Wind Pressure Humidity
    00:00 +4°C° 0 mm 1 mps 702 mmHg 53%
    01:00 +4°C° 0 mm 1 mps 702 mmHg 54%
    02:00 +4°C° 0 mm 1 mps 702 mmHg 54%
    03:00 +3°C° 0 mm 1 mps 702 mmHg 54%
    04:00 +3°C° 0 mm 1 mps 702 mmHg 54%
    05:00 +3°C° 0 mm 1 mps 703 mmHg 53%
    06:00 +3°C° 0 mm 1 mps 703 mmHg 52%
    07:00 +3°C° 0 mm 1 mps 704 mmHg 50%
    08:00 +5°C° 0 mm 1 mps 704 mmHg 45%
    09:00 +7°C° 0 mm 1 mps 704 mmHg 40%
    10:00 +8°C° 0 mm 1 mps 704 mmHg 35%
    11:00 +9°C° 0 mm 1 mps 704 mmHg 34%
    12:00 +9°C° 0 mm 1 mps 703 mmHg 33%
    13:00 +10°C° 0 mm 1 mps 703 mmHg 33%
    14:00 +10°C° 0 mm 1 mps 703 mmHg 32%
    15:00 +10°C° 0 mm 1 mps 703 mmHg 32%
    16:00 +10°C° 0 mm 1 mps 704 mmHg 32%
    17:00 +9°C° 0 mm 1 mps 704 mmHg 34%
    18:00 +8°C° 0 mm 1 mps 704 mmHg 37%
    19:00 +7°C° 0 mm 1 mps 705 mmHg 39%
    20:00 +6°C° 0 mm 1 mps 705 mmHg 39%
    21:00 +6°C° 0 mm 1 mps 705 mmHg 40%
    22:00 +5°C° 0 mm 1 mps 706 mmHg 40%
    23:00 +5°C° 0 mm 1 mps 706 mmHg 40%
    Show more